Погода в Окаяме

Япония     34°39′54″N   133°55′03″E
темп.,
°C
ветер,
м/с
пор.,
м/с
влажн.,
%
обл.,
%
осадки,
мм/ч
давл.,
гПа
погр.,
м
25 февраля, чт
чт2500:00+3ссв23594 0.0 1027253
03:00+2ссв125938 0.0 1026190
06:00+2ссв125926 0.0 1027132
09:00+5св124832 0.0 1026391
12:00+9юв223431 0.0 1025653
15:00+12вюв112661 0.0 1022687
18:00+10вюв2336100 0.0 1024264
21:00+9ссв1138100 0.0 1023132
26 февраля, пт
пт2600:00+8с1249100 0.0 1025191
03:00+7с2356100 0.1 1022252
06:00+6св3677100 0.6 1023676
09:00+5ссв4784100 2.2 1024553
12:00+7св3672100 1.7 1023781
15:00+9ссв2463100 1.9 10221037
18:00+7ссв3672100 0.1 1022664
21:00+6св2476100 0.4 1022495
27 февраля, сб
сб2700:00+6ссз1366100 0.1 1023520
03:00+5ссз1464100 0.1 1024517
06:00+4с4765100 0.0 1027365
09:00+5ссв51055100 0.0 1029984
12:00+8ссв364274 0.0 10291096
15:00+10ссв453541 0.0 10281161
18:00+7ссв34430 0.0 1029531
21:00+4ссв345930 0.0 1032299
28 февраля, вс
вс2800:00+2ссв2365100 0.0 1032263
03:00+2ссв2365100 0.0 1032190
06:00+2с236387 0.0 1032125
09:00+6св245553 0.0 1033341
12:00+12юв59582 0.0 10311097
15:00+13юв7115017 0.0 10301433
18:00+12юв6115851 0.0 1031905
21:00+11юв5106372 0.0 1031884
1 марта, пн
пн100:00+11юв5126597 0.0 1029893
03:00+10вюв4117679 0.0 1029702
06:00+10св278075 0.1 1028306
09:00+12вюв487081 0.2 1028784
12:00+14вюв5861100 0.0 1025794
15:00+16юв61061100 0.0 1022821
18:00+14юв6127266 0.0 1021620
21:00+14юв6128074 0.0 1020572